This demonstration page uses our WeatherBlox Daily Observations layout. Learn more.

Left ArrowRight Arrow

Hourly Observations for June 2, 2018

Temp ( °F °C ) Dew Point ( °F °C ) Humidity (%) Winds ( mph kmh ) Pressure ( in mb ) Visibility ( mi km ) Precip ( " mm )
12:01 am 00:01 Cloudy with Thunderstorms 63 17 59 15 88 88 NE 12 19 29.77 1008 3 4 0.00 0.00
12:09 am 00:09 Cloudy with Thunderstorms 63 17 59 15 88 88 NE 10 17 29.80 1009 3 5 0.00 0.00
12:39 am 00:39 Cloudy with Thunderstorms 63 17 61 16 94 94 ENE 9 15 29.83 1010 5 8 0.00 0.00
12:56 am 00:56 Cloudy with Thunderstorms 62 16.7 60 15.6 93 93 E 8 13 29.80 1009 6 10 0.22 5.59
1:45 am 01:45 Mostly Clear 63 17 61 16 94 94 E 16 26 29.80 1009 10 16 0.00 0.00
1:56 am 01:56 Clear 62 16.7 60 15.6 93 93 ENE 14 22 29.76 1008 10 16 0.00 0.00
2:56 am 02:56 Mostly Cloudy 62 16.7 61 16.1 96 96 NNE 9 15 29.81 1010 10 16 0.00 0.00
3:28 am 03:28 Mostly Cloudy 63 17 61 16 94 94 Calm 29.85 1011 10 16 0.00 0.00
3:56 am 03:56 Partly Cloudy 62 16.7 60 15.6 93 93 N 6 9 29.83 1010 10 16 0.00 0.00
4:44 am 04:44 Mostly Cloudy 63 17 61 16 94 94 WNW 10 17 29.88 1012 10 16 0.00 0.00
4:56 am 04:56 Cloudy 63 17.2 61 16.1 93 93 WNW 12 19 29.87 1012 10 16 0.00 0.00
5:56 am 05:56 Cloudy 63 17.2 56 13.3 78 78 NNW 17 28 29.92 1013 10 16 0.00 0.00
6:05 am 06:05 Cloudy 63 17 55 13 77 77 NNW 21 33 29.94 1014 10 16 0.00 0.00
6:56 am 06:56 Cloudy 62 16.7 54 12.2 75 75 NNW 18 30 29.98 1015 10 16 0.00 0.00
7:56 am 07:56 Partly Cloudy 62 16.7 54 12.2 75 75 N 15 24 30.02 1017 10 16 0.00 0.00
8:56 am 08:56 Sunny 63 17.2 53 11.7 70 70 NNW 18 30 30.06 1018 10 16 0.00 0.00
9:56 am 09:56 Sunny 66 18.9 53 11.7 63 63 NNW 18 30 30.08 1019 10 16 0.00 0.00
10:56 am 10:56 Sunny 69 20.6 52 11.1 55 55 NNW 20 31 30.06 1018 10 16 0.00 0.00
11:56 am 11:56 Sunny 71 21.7 52 11.1 51 51 N 18 30 30.09 1019 10 16 0.00 0.00
12:56 pm 12:56 Mostly Sunny 73 22.8 49 9.4 43 43 NNW 18 30 30.08 1019 10 16 0.00 0.00
1:56 pm 13:56 Sunny 74 23.3 50 10 43 43 NNW 18 30 30.08 1019 10 16 0.00 0.00
2:56 pm 14:56 Sunny 76 24.4 46 7.8 35 35 NNW 21 33 30.08 1019 10 16 0.00 0.00
3:56 pm 15:56 Sunny 77 25 45 7.2 32 32 NW 20 31 30.07 1018 10 16 0.00 0.00
4:56 pm 16:56 Sunny 77 25 46 7.8 33 33 NNW 15 24 30.07 1018 10 16 0.00 0.00
5:56 pm 17:56 Sunny 77 25 45 7.2 32 32 NNW 15 24 30.07 1018 10 16 0.00 0.00
6:56 pm 18:56 Sunny 77 25 45 7.2 32 32 NNW 14 22 30.07 1018 10 16 0.00 0.00
7:56 pm 19:56 Sunny 76 24.4 46 7.8 35 35 NNW 7 11 30.08 1019 10 16 0.00 0.00
8:56 pm 20:56 Sunny 72 22.2 51 10.6 48 48 NW 5 7 30.09 1019 10 16 0.00 0.00
9:56 pm 21:56 Clear 69 20.6 50 10 51 51 NW 6 9 30.11 1020 10 16 0.00 0.00
10:56 pm 22:56 Clear 64 17.8 53 11.7 68 68 NNE 3 6 30.14 1021 10 16 0.00 0.00
11:56 pm 23:56 Clear 62 16.7 52 11.1 70 70 NNW 3 6 30.15 1021 10 16 0.00 0.00

Powered by AerisWeather